BAW47C KGPT-KMEM

Flight info

Callsign BAW47C
Flight time 0h 58m
Altitude 33000
Route CLAYS MERDN CRAMM VANZE3
Aircraft B744/H-SDE3FGHIM1M2RWXY/LB1

Departure

Time 2026-04-26 17:14
Airport Gulfport Biloxi International Airport (KGPT)

Arrival

Time 2026-04-26 18:13
Airport Memphis International Airport (KMEM)
Time Latitude Longitude Altitude Speed Heading
2026-04-26 16:44 30.41266 -89.07352 36 ft 0 kts 51°
2026-04-26 17:05 30.41252 -89.07372 25 ft 5 kts 50°
2026-04-26 17:05 30.41230 -89.07397 33 ft 4 kts
2026-04-26 17:05 30.41211 -89.07386 32 ft 1 kts 300°
2026-04-26 17:05 30.41210 -89.07386 32 ft 0 kts 299°
2026-04-26 17:09 30.41222 -89.07399 35 ft 5 kts 331°
2026-04-26 17:09 30.41258 -89.07424 35 ft 6 kts 316°
2026-04-26 17:10 30.41260 -89.07492 35 ft 12 kts 246°
2026-04-26 17:10 30.41223 -89.07588 35 ft 9 kts 261°
2026-04-26 17:10 30.41265 -89.07674 36 ft 16 kts 315°
2026-04-26 17:10 30.41351 -89.07773 36 ft 18 kts 315°
2026-04-26 17:11 30.41430 -89.07864 36 ft 14 kts 315°
2026-04-26 17:11 30.41512 -89.07959 36 ft 19 kts 316°
2026-04-26 17:11 30.41580 -89.08041 36 ft 4 kts 297°
2026-04-26 17:11 30.41588 -89.08086 36 ft 8 kts 253°
2026-04-26 17:12 30.41551 -89.08137 35 ft 8 kts 223°
2026-04-26 17:12 30.41508 -89.08185 36 ft 7 kts 219°
2026-04-26 17:13 30.41436 -89.08160 35 ft 13 kts 135°
2026-04-26 17:13 30.41208 -89.07895 35 ft 78 kts 135°
2026-04-26 17:13 30.40023 -89.06525 69 ft 140 kts 135°
2026-04-26 17:14 30.39272 -89.05669 437 ft 144 kts 135°
2026-04-26 17:14 30.37646 -89.03841 1400 ft 165 kts 135°
2026-04-26 17:14 30.36714 -89.02804 1748 ft 198 kts 135°
2026-04-26 17:15 30.34425 -89.00228 1985 ft 254 kts 134°
2026-04-26 17:15 30.33193 -88.98777 2006 ft 259 kts 133°
2026-04-26 17:15 30.31912 -88.97256 2002 ft 268 kts 133°
2026-04-26 17:16 30.30819 -88.95514 1963 ft 276 kts 110°
2026-04-26 17:16 30.30682 -88.93346 2365 ft 272 kts 77°
2026-04-26 17:16 30.31336 -88.91327 3211 ft 254 kts 59°
2026-04-26 17:16 30.32444 -88.89635 4163 ft 249 kts 45°
2026-04-26 17:17 30.33939 -88.88380 5087 ft 270 kts 23°
2026-04-26 17:17 30.35863 -88.87997 5908 ft 275 kts
2026-04-26 17:17 30.37875 -88.87756 6744 ft 302 kts
2026-04-26 17:17 30.39977 -88.87502 7600 ft 307 kts
2026-04-26 17:18 30.42121 -88.87250 8481 ft 311 kts
2026-04-26 17:18 30.44279 -88.87018 9384 ft 312 kts
2026-04-26 17:18 30.46461 -88.86804 10263 ft 314 kts
2026-04-26 17:18 30.48719 -88.86577 10799 ft 339 kts
2026-04-26 17:19 30.53672 -88.86052 11629 ft 374 kts
2026-04-26 17:19 30.56295 -88.85763 11981 ft 393 kts
2026-04-26 17:19 30.59083 -88.85451 12312 ft 412 kts
2026-04-26 17:20 30.61967 -88.85124 12563 ft 423 kts
2026-04-26 17:20 30.63984 -88.84894 12742 ft 436 kts
2026-04-26 17:20 30.68010 -88.84431 13317 ft 441 kts
2026-04-26 17:20 30.71064 -88.84075 13920 ft 439 kts
2026-04-26 17:21 30.74060 -88.83679 14207 ft 432 kts
2026-04-26 17:21 30.76995 -88.83287 14491 ft 420 kts
2026-04-26 17:21 30.79862 -88.82994 14943 ft 412 kts
2026-04-26 17:21 30.82679 -88.82771 15298 ft 409 kts
2026-04-26 17:22 30.85532 -88.82577 15756 ft 414 kts
2026-04-26 17:22 30.88403 -88.82333 16113 ft 414 kts
2026-04-26 17:22 30.91283 -88.82027 16567 ft 415 kts
2026-04-26 17:22 30.94172 -88.81691 16991 ft 417 kts
2026-04-26 17:23 30.97076 -88.81342 17415 ft 421 kts
2026-04-26 17:23 30.99988 -88.80988 18092 ft 422 kts
2026-04-26 17:23 31.02883 -88.80638 18495 ft 424 kts
2026-04-26 17:23 31.05838 -88.80290 18881 ft 426 kts
2026-04-26 17:24 31.08797 -88.79951 19265 ft 428 kts
2026-04-26 17:24 31.11777 -88.79616 19635 ft 434 kts
2026-04-26 17:24 31.14772 -88.79284 20013 ft 434 kts
2026-04-26 17:24 31.17782 -88.78952 20388 ft 434 kts
2026-04-26 17:25 31.20807 -88.78652 20757 ft 436 kts 358°
2026-04-26 17:25 31.23838 -88.78726 21139 ft 434 kts 355°
2026-04-26 17:25 31.26883 -88.78798 21502 ft 440 kts 355°
2026-04-26 17:25 31.29906 -88.78840 21854 ft 442 kts 356°
2026-04-26 17:26 31.33013 -88.78853 22207 ft 450 kts 355°
2026-04-26 17:26 31.36160 -88.78862 22572 ft 458 kts 355°
2026-04-26 17:26 31.39325 -88.78889 22933 ft 454 kts 355°
2026-04-26 17:26 31.42514 -88.78931 23302 ft 458 kts 355°
2026-04-26 17:27 31.45717 -88.78981 23640 ft 457 kts 354°
2026-04-26 17:27 31.48933 -88.79034 23954 ft 461 kts 354°
2026-04-26 17:27 31.52161 -88.79087 24321 ft 464 kts 354°
2026-04-26 17:27 31.55387 -88.79150 24682 ft 463 kts 354°
2026-04-26 17:28 31.58552 -88.79308 25018 ft 462 kts 353°
2026-04-26 17:28 31.61761 -88.79503 25365 ft 466 kts 353°
2026-04-26 17:28 31.64986 -88.79665 25722 ft 463 kts 353°
2026-04-26 17:28 31.68233 -88.79777 26083 ft 465 kts 354°
2026-04-26 17:29 31.71493 -88.79849 26445 ft 466 kts 354°
2026-04-26 17:29 31.73670 -88.79884 26654 ft 476 kts 354°
2026-04-26 17:29 31.78083 -88.79939 27227 ft 471 kts 354°
2026-04-26 17:29 31.81393 -88.79975 27729 ft 477 kts 354°
2026-04-26 17:30 31.84680 -88.80019 28244 ft 469 kts 353°
2026-04-26 17:30 31.87926 -88.80076 28767 ft 475 kts 353°
2026-04-26 17:30 31.91209 -88.80126 29303 ft 473 kts 353°
2026-04-26 17:30 31.94485 -88.80175 29867 ft 471 kts 353°
2026-04-26 17:31 31.97750 -88.80223 30364 ft 466 kts 353°
2026-04-26 17:31 32.01005 -88.80266 30891 ft 468 kts 353°
2026-04-26 17:31 32.04254 -88.80237 31426 ft 466 kts 355°
2026-04-26 17:31 32.07492 -88.80178 31984 ft 465 kts 355°
2026-04-26 17:32 32.10719 -88.80123 32516 ft 465 kts 355°
2026-04-26 17:32 32.13894 -88.80093 32864 ft 462 kts 354°
2026-04-26 17:32 32.17098 -88.80095 32975 ft 459 kts 354°
2026-04-26 17:32 32.20271 -88.80122 32986 ft 454 kts 353°
2026-04-26 17:33 32.26576 -88.80216 32994 ft 455 kts 353°
2026-04-26 17:34 32.35984 -88.80375 32968 ft 454 kts 353°
2026-04-26 17:34 32.42183 -88.80652 32945 ft 451 kts 351°
2026-04-26 17:35 32.48429 -88.80919 32951 ft 452 kts 352°
2026-04-26 17:35 32.54678 -88.81151 32941 ft 449 kts 352°
2026-04-26 17:36 32.60932 -88.81379 32973 ft 450 kts 352°
2026-04-26 17:36 32.67184 -88.81615 32999 ft 450 kts 352°
2026-04-26 17:37 32.73405 -88.81864 33021 ft 454 kts 352°
2026-04-26 17:37 32.79680 -88.82121 33021 ft 451 kts 352°
2026-04-26 17:38 32.89106 -88.82510 33031 ft 451 kts 352°
2026-04-26 17:38 32.95342 -88.82768 32987 ft 453 kts 352°
2026-04-26 17:39 33.01633 -88.83028 32948 ft 451 kts 352°
2026-04-26 17:39 33.07926 -88.83286 32894 ft 452 kts 352°
2026-04-26 17:40 33.13162 -88.83503 32907 ft 452 kts 352°
2026-04-26 17:40 33.20522 -88.83810 32943 ft 454 kts 352°
2026-04-26 17:41 33.26780 -88.84072 32960 ft 453 kts 352°
2026-04-26 17:41 33.33078 -88.84336 32948 ft 455 kts 352°
2026-04-26 17:42 33.39362 -88.84601 32956 ft 450 kts 352°
2026-04-26 17:42 33.45642 -88.84871 32956 ft 453 kts 352°
2026-04-26 17:43 33.51912 -88.85143 32948 ft 454 kts 352°
2026-04-26 17:43 33.58138 -88.85411 32957 ft 452 kts 352°
2026-04-26 17:44 33.64410 -88.85672 32957 ft 453 kts 352°
2026-04-26 17:44 33.70689 -88.85919 32958 ft 453 kts 352°
2026-04-26 17:45 33.77000 -88.86166 32960 ft 456 kts 351°
2026-04-26 17:45 33.83321 -88.86422 32960 ft 458 kts 351°
2026-04-26 17:46 33.89697 -88.86700 32957 ft 458 kts 351°
2026-04-26 17:46 33.92870 -88.86836 32727 ft 455 kts 351°
2026-04-26 17:46 33.96018 -88.86971 32274 ft 456 kts 351°
2026-04-26 17:47 33.99180 -88.87109 31717 ft 454 kts 351°
2026-04-26 17:47 34.01272 -88.87201 31346 ft 453 kts 351°
2026-04-26 17:47 34.05519 -88.87389 30718 ft 461 kts 351°
2026-04-26 17:47 34.08708 -88.87533 30213 ft 462 kts 351°
2026-04-26 17:48 34.11863 -88.87678 29631 ft 459 kts 351°
2026-04-26 17:48 34.15076 -88.87824 29099 ft 463 kts 351°
2026-04-26 17:48 34.18306 -88.87968 28606 ft 469 kts 351°
2026-04-26 17:48 34.21557 -88.88109 28057 ft 470 kts 351°
2026-04-26 17:49 34.24839 -88.88248 27457 ft 473 kts 351°
2026-04-26 17:49 34.28151 -88.88386 26893 ft 478 kts 351°
2026-04-26 17:49 34.31502 -88.88527 26323 ft 486 kts 351°
2026-04-26 17:49 34.34888 -88.88672 25728 ft 491 kts 351°
2026-04-26 17:50 34.38288 -88.88818 25143 ft 489 kts 351°
2026-04-26 17:50 34.41650 -88.88963 24581 ft 490 kts 352°
2026-04-26 17:50 34.45053 -88.89111 23992 ft 491 kts 352°
2026-04-26 17:50 34.48458 -88.89259 23404 ft 486 kts 352°
2026-04-26 17:51 34.51854 -88.89407 22802 ft 487 kts 352°
2026-04-26 17:51 34.55226 -88.89716 22230 ft 480 kts 343°
2026-04-26 17:51 34.58275 -88.90856 21769 ft 440 kts 329°
2026-04-26 17:51 34.60737 -88.92682 21259 ft 395 kts 316°
2026-04-26 17:52 34.62576 -88.94904 20785 ft 367 kts 307°
2026-04-26 17:52 34.64009 -88.97394 20347 ft 353 kts 300°
2026-04-26 17:52 34.65058 -89.00079 19909 ft 352 kts 293°
2026-04-26 17:52 34.65874 -89.02859 19466 ft 347 kts 292°
2026-04-26 17:53 34.66699 -89.05623 19037 ft 348 kts 292°
2026-04-26 17:53 34.67484 -89.08385 18632 ft 344 kts 291°
2026-04-26 17:53 34.68202 -89.11115 18253 ft 336 kts 290°
2026-04-26 17:54 34.69537 -89.16516 17225 ft 332 kts 289°
2026-04-26 17:54 34.70171 -89.19203 16824 ft 330 kts 289°
2026-04-26 17:54 34.70787 -89.21850 16457 ft 331 kts 289°
2026-04-26 17:54 34.71401 -89.24527 16091 ft 327 kts 289°
2026-04-26 17:55 34.72008 -89.27199 15764 ft 330 kts 289°
2026-04-26 17:55 34.72608 -89.29870 15467 ft 326 kts 288°
2026-04-26 17:55 34.73200 -89.32535 15163 ft 329 kts 288°
2026-04-26 17:55 34.73786 -89.35199 14886 ft 327 kts 288°
2026-04-26 17:56 34.74368 -89.37856 14592 ft 323 kts 288°
2026-04-26 17:56 34.75654 -89.42973 14064 ft 317 kts 283°
2026-04-26 17:57 34.76819 -89.48171 13475 ft 323 kts 279°
2026-04-26 17:57 34.77563 -89.50753 13146 ft 328 kts 290°
2026-04-26 17:57 34.78642 -89.53200 12843 ft 331 kts 294°
2026-04-26 17:57 34.79824 -89.55580 12534 ft 330 kts 296°
2026-04-26 17:58 34.83477 -89.62649 11631 ft 329 kts 296°
2026-04-26 17:59 34.85773 -89.67094 11331 ft 298 kts 296°
2026-04-26 17:59 34.86864 -89.69208 11034 ft 293 kts 296°
2026-04-26 17:59 34.87933 -89.71312 10706 ft 292 kts 296°
2026-04-26 17:59 34.88991 -89.73400 10475 ft 287 kts 296°
2026-04-26 18:00 34.90025 -89.75439 10310 ft 278 kts 296°
2026-04-26 18:00 34.91024 -89.77409 10092 ft 271 kts 296°
2026-04-26 18:00 34.92003 -89.79353 9818 ft 266 kts 295°
2026-04-26 18:00 34.92971 -89.81285 9512 ft 268 kts 295°
2026-04-26 18:01 34.93948 -89.83163 9198 ft 268 kts 298°
2026-04-26 18:01 34.95239 -89.84827 8877 ft 274 kts 314°
2026-04-26 18:01 34.96920 -89.85965 8601 ft 279 kts 333°
2026-04-26 18:01 34.98882 -89.86470 8468 ft 303 kts 351°
2026-04-26 18:02 35.01008 -89.86482 8105 ft 304 kts 357°
2026-04-26 18:02 35.02391 -89.86429 8007 ft 296 kts 359°
2026-04-26 18:02 35.05032 -89.86309 7840 ft 272 kts 359°
2026-04-26 18:02 35.06863 -89.86238 7646 ft 255 kts 358°
2026-04-26 18:03 35.08574 -89.86210 7357 ft 242 kts 357°
2026-04-26 18:03 35.10217 -89.86211 7007 ft 239 kts 356°
2026-04-26 18:03 35.11857 -89.86225 6652 ft 236 kts 356°
2026-04-26 18:03 35.13485 -89.86247 6308 ft 235 kts 356°
2026-04-26 18:04 35.15101 -89.86275 5944 ft 233 kts 356°
2026-04-26 18:04 35.16707 -89.86309 5607 ft 231 kts 356°
2026-04-26 18:04 35.18295 -89.86346 5260 ft 223 kts 356°
2026-04-26 18:05 35.21324 -89.86404 4615 ft 215 kts 357°
2026-04-26 18:05 35.22801 -89.86431 4301 ft 213 kts 357°
2026-04-26 18:05 35.24246 -89.86461 4005 ft 210 kts 358°
2026-04-26 18:05 35.25716 -89.86491 3653 ft 213 kts 354°
2026-04-26 18:06 35.27097 -89.87006 3251 ft 202 kts 323°
2026-04-26 18:06 35.28044 -89.88200 3103 ft 193 kts 296°
2026-04-26 18:06 35.28325 -89.89751 3065 ft 185 kts 262°
2026-04-26 18:06 35.28160 -89.91309 3051 ft 183 kts 250°
2026-04-26 18:07 35.27709 -89.92771 3053 ft 185 kts 245°
2026-04-26 18:07 35.27278 -89.94255 3018 ft 185 kts 248°
2026-04-26 18:07 35.26862 -89.95749 3009 ft 181 kts 246°
2026-04-26 18:07 35.26481 -89.96667 3004 ft 183 kts 233°
2026-04-26 18:08 35.25110 -89.97604 3022 ft 177 kts 185°
2026-04-26 18:08 35.23896 -89.97662 2980 ft 171 kts 181°
2026-04-26 18:08 35.22683 -89.97658 2970 ft 169 kts 180°
2026-04-26 18:08 35.21448 -89.97636 2982 ft 173 kts 180°
2026-04-26 18:09 35.20214 -89.97611 2982 ft 179 kts 179°
2026-04-26 18:09 35.18981 -89.97591 2931 ft 177 kts 179°
2026-04-26 18:09 35.17769 -89.97565 2725 ft 176 kts 179°
2026-04-26 18:09 35.16536 -89.97537 2496 ft 174 kts 179°
2026-04-26 18:10 35.15367 -89.97512 2275 ft 168 kts 179°
2026-04-26 18:10 35.14211 -89.97488 2063 ft 163 kts 179°
2026-04-26 18:10 35.13093 -89.97465 1848 ft 159 kts 178°
2026-04-26 18:10 35.11994 -89.97441 1660 ft 157 kts 178°
2026-04-26 18:11 35.10901 -89.97411 1433 ft 158 kts 178°
2026-04-26 18:11 35.09810 -89.97386 1244 ft 156 kts 178°
2026-04-26 18:11 35.08721 -89.97355 1047 ft 156 kts 178°
2026-04-26 18:11 35.07651 -89.97336 844 ft 156 kts 180°
2026-04-26 18:12 35.06561 -89.97323 657 ft 157 kts 180°
2026-04-26 18:12 35.05478 -89.97306 484 ft 155 kts 179°
2026-04-26 18:12 35.04389 -89.97282 332 ft 153 kts 179°
2026-04-26 18:12 35.03490 -89.97264 333 ft 103 kts 179°
2026-04-26 18:13 35.02972 -89.97254 333 ft 48 kts 179°
2026-04-26 18:13 35.02679 -89.97251 331 ft 42 kts 178°
2026-04-26 18:13 35.02560 -89.97189 329 ft 15 kts 95°
2026-04-26 18:13 35.02565 -89.97095 331 ft 18 kts 66°
2026-04-26 18:14 35.02688 -89.97027 331 ft 16 kts 355°
2026-04-26 18:14 35.02805 -89.97046 332 ft 18 kts 345°
2026-04-26 18:14 35.02934 -89.97072 333 ft 20 kts 357°
2026-04-26 18:14 35.03077 -89.97076 331 ft 22 kts 360°
2026-04-26 18:15 35.03234 -89.97081 331 ft 23 kts 358°
2026-04-26 18:15 35.03400 -89.97083 331 ft 25 kts 359°
2026-04-26 18:15 35.03577 -89.97086 332 ft 25 kts 360°
2026-04-26 18:15 35.03717 -89.97090 333 ft 19 kts 359°
2026-04-26 18:16 35.03860 -89.97093 333 ft 22 kts 359°
2026-04-26 18:16 35.04203 -89.97102 333 ft 25 kts 359°
2026-04-26 18:16 35.04320 -89.97096 332 ft 18 kts 10°
2026-04-26 18:17 35.04448 -89.97062 332 ft 20 kts
2026-04-26 18:17 35.04593 -89.97064 332 ft 22 kts 360°
2026-04-26 18:17 35.04751 -89.97069 333 ft 23 kts
2026-04-26 18:17 35.04921 -89.97071 332 ft 25 kts 359°
2026-04-26 18:18 35.05103 -89.97055 332 ft 27 kts
2026-04-26 18:18 35.05282 -89.97023 333 ft 26 kts
2026-04-26 18:18 35.05442 -89.96992 332 ft 19 kts
2026-04-26 18:18 35.05492 -89.96981 330 ft 5 kts 11°
2026-04-26 18:19 35.05504 -89.96978 335 ft 3 kts 19°
2026-04-26 18:19 35.05522 -89.96948 330 ft 6 kts 90°
2026-04-26 18:19 35.05521 -89.96881 332 ft 9 kts 91°
2026-04-26 18:19 35.05521 -89.96825 332 ft 5 kts 80°
2026-04-26 18:20 35.05522 -89.96821 332 ft 0 kts 80°